TimeAKST,TemperatureF,Dew PointF,Humidity,Sea Level PressureIn,VisibilityMPH,Wind Direction,Wind SpeedMPH,Gust SpeedMPH,PrecipitationIn,Events,Conditions,WindDirDegrees,DateUTC
12:53 AM,-20.9,-26.0,77,30.58,10.0,Calm,Calm,-,N/A,,Clear,0,2012-11-08 09:53:00
1:53 AM,-20.0,-26.0,74,30.57,10.0,Calm,Calm,-,N/A,,Clear,0,2012-11-08 10:53:00
3:53 AM,-20.9,-27.0,73,30.55,10.0,North,3.5,-,N/A,,Clear,10,2012-11-08 12:53:00
4:53 AM,-20.0,-26.0,74,30.54,10.0,NW,3.5,-,N/A,,Clear,320,2012-11-08 13:53:00
5:53 AM,-20.0,-26.0,74,30.53,10.0,Calm,Calm,-,N/A,,Clear,0,2012-11-08 14:53:00
6:53 AM,-22.0,-27.9,74,30.52,10.0,Calm,Calm,-,N/A,,Clear,0,2012-11-08 15:53:00
7:53 AM,-20.0,-26.0,74,30.49,10.0,Calm,Calm,-,N/A,,Partly Cloudy,0,2012-11-08 16:53:00
8:53 AM,-20.0,-25.1,78,30.48,10.0,Calm,Calm,-,N/A,,Partly Cloudy,0,2012-11-08 17:53:00
9:53 AM,-18.0,-23.1,78,30.46,10.0,Calm,Calm,-,N/A,,Partly Cloudy,0,2012-11-08 18:53:00
10:53 AM,-15.0,-20.0,78,30.45,10.0,Calm,Calm,-,N/A,,Partly Cloudy,0,2012-11-08 19:53:00
11:53 AM,-11.0,-17.0,75,30.43,10.0,NNE,4.6,-,N/A,,Partly Cloudy,20,2012-11-08 20:53:00
12:53 PM,-7.1,-11.0,83,30.41,10.0,South,4.6,-,N/A,,Partly Cloudy,170,2012-11-08 21:53:00
1:53 PM,-2.9,-9.0,75,30.39,10.0,NE,3.5,-,N/A,,Scattered Clouds,40,2012-11-08 22:53:00
2:53 PM,-4.0,-9.0,79,30.36,10.0,Calm,Calm,-,N/A,,Scattered Clouds,0,2012-11-08 23:53:00
3:53 PM,-2.9,-8.0,79,30.33,10.0,Calm,Calm,-,N/A,,Scattered Clouds,0,2012-11-09 00:53:00
4:53 PM,-8.0,-13.0,79,30.31,10.0,Calm,Calm,-,N/A,,Mostly Cloudy,0,2012-11-09 01:53:00
5:53 PM,-8.0,-13.0,79,30.30,10.0,NNE,4.6,-,N/A,,Mostly Cloudy,20,2012-11-09 02:53:00
6:53 PM,-7.1,-11.0,83,30.27,10.0,Calm,Calm,-,N/A,,Mostly Cloudy,0,2012-11-09 03:53:00
7:53 PM,-8.0,-13.0,79,30.27,10.0,Calm,Calm,-,N/A,,Mostly Cloudy,0,2012-11-09 04:53:00
8:53 PM,-5.1,-9.9,80,30.25,10.0,Calm,Calm,-,N/A,,Mostly Cloudy,0,2012-11-09 05:53:00
9:53 PM,-4.0,-9.0,79,30.25,10.0,Calm,Calm,-,N/A,,Mostly Cloudy,0,2012-11-09 06:53:00
10:53 PM,-2.0,-7.1,79,30.24,10.0,Calm,Calm,-,N/A,,Mostly Cloudy,0,2012-11-09 07:53:00
11:53 PM,-0.0,-5.1,79,30.22,10.0,Calm,Calm,-,N/A,,Mostly Cloudy,0,2012-11-09 08:53:00